Location: Laura�t
(43.9341°N, 0.2497°E)
Time: 08:34:00
(UTC+00:00)

USA 234 - Pass Details

Date: 03 March 2021
Orbit: 1102 x 1105 km, 123.0° (Epoch: 18 April)

Event Time Altitude Azimuth Distance (km) Brightness Sun altitude
Exits shadow 19:39:58 18° 52° (NE) 2,403 4.7 -20.5°
Maximum altitude 19:45:03 82° 139° (SE) 1,116 3.1 -21.4°
Drops below altitude 10° 19:51:36 10° 228° (SW) 2,955 5.9 -22.5°
Sets 19:54:04 0° 229° (SW) 3,910 6.6 -23.0°
